Previsão horária em Senador José Porfírio

Hoje, 2 Dezembro, Quarta-feira

Tempo Temperatura Precipitação Vento Pressão Humidade
00:00 +26°C° 0.1 mm 1 m/s 756 mmHg 91%
01:00 +26°C° 0.3 mm 1 m/s 755 mmHg 92%
02:00 +25°C° 0.3 mm 1 m/s 755 mmHg 93%
03:00 +25°C° 0.3 mm 1 m/s 754 mmHg 94%
04:00 +25°C° 0 mm 1 m/s 755 mmHg 95%
05:00 +25°C° 0 mm 1 m/s 755 mmHg 95%
06:00 +25°C° 0 mm 1 m/s 755 mmHg 96%
07:00 +26°C° 0 mm 1 m/s 756 mmHg 90%
08:00 +28°C° 0 mm 1 m/s 756 mmHg 83%
09:00 +29°C° 0 mm 2 m/s 757 mmHg 77%
10:00 +31°C° 0 mm 2 m/s 757 mmHg 68%
11:00 +33°C° 0 mm 1 m/s 757 mmHg 60%
12:00 +35°C° 0 mm 1 m/s 756 mmHg 51%
13:00 +35°C° 0.1 mm 1 m/s 755 mmHg 51%
14:00 +35°C° 0.1 mm 1 m/s 755 mmHg 51%
15:00 +35°C° 0.1 mm 1 m/s 754 mmHg 50%
16:00 +34°C° 0.2 mm 1 m/s 754 mmHg 54%
17:00 +33°C° 0.2 mm 1 m/s 754 mmHg 59%
18:00 +30°C° 0.2 mm 0 m/s 754 mmHg 63%
19:00 +30°C° 1.2 mm 1 m/s 754 mmHg 73%
20:00 +28°C° 1.2 mm 1 m/s 755 mmHg 83%
21:00 +26°C° 1.2 mm 1 m/s 756 mmHg 92%
22:00 +26°C° 0 mm 1 m/s 756 mmHg 93%
23:00 +24°C° 0 mm 0 m/s 756 mmHg 94%

Amanhã, 3 Dezembro, Quinta-feira

Tempo Temperatura Precipitação Vento Pressão Humidade
00:00 +24°C° 0 mm 0 m/s 757 mmHg 95%
01:00 +23°C° 0 mm 0 m/s 756 mmHg 95%
02:00 +25°C° 0 mm 1 m/s 755 mmHg 96%
03:00 +25°C° 0 mm 1 m/s 755 mmHg 97%
04:00 +25°C° 0 mm 1 m/s 755 mmHg 97%
05:00 +25°C° 0 mm 1 m/s 755 mmHg 97%
06:00 +25°C° 0 mm 1 m/s 755 mmHg 97%
07:00 +26°C° 0 mm 1 m/s 756 mmHg 92%
08:00 +27°C° 0 mm 1 m/s 757 mmHg 87%
09:00 +28°C° 0 mm 2 m/s 757 mmHg 82%
10:00 +30°C° 0 mm 2 m/s 757 mmHg 73%
11:00 +32°C° 0 mm 1 m/s 757 mmHg 64%
12:00 +34°C° 0 mm 1 m/s 756 mmHg 55%
13:00 +34°C° 0.1 mm 1 m/s 756 mmHg 55%
14:00 +34°C° 0.1 mm 1 m/s 755 mmHg 54%
15:00 +34°C° 0.1 mm 1 m/s 754 mmHg 53%
16:00 +33°C° 0.3 mm 1 m/s 754 mmHg 58%
17:00 +32°C° 0.3 mm 1 m/s 754 mmHg 63%
18:00 +31°C° 0.3 mm 1 m/s 754 mmHg 68%
19:00 +30°C° 0.1 mm 1 m/s 755 mmHg 72%
20:00 +29°C° 0.1 mm 1 m/s 755 mmHg 76%
21:00 +28°C° 0.1 mm 1 m/s 756 mmHg 80%
22:00 +27°C° 0 mm 1 m/s 756 mmHg 81%
23:00 +27°C° 0 mm 1 m/s 756 mmHg 83%

Depois de amanhã, 4 Dezembro, Sexta-feira

Tempo Temperatura Precipitação Vento Pressão Humidade
00:00 +27°C° 0 mm 2 m/s 756 mmHg 85%
01:00 +26°C° 0 mm 1 m/s 756 mmHg 86%
02:00 +26°C° 0 mm 1 m/s 755 mmHg 88%
03:00 +26°C° 0 mm 1 m/s 755 mmHg 90%
04:00 +26°C° 0 mm 1 m/s 755 mmHg 91%
05:00 +25°C° 0 mm 1 m/s 756 mmHg 93%
06:00 +25°C° 0 mm 1 m/s 756 mmHg 94%
07:00 +27°C° 0 mm 1 m/s 757 mmHg 87%
08:00 +28°C° 0 mm 1 m/s 757 mmHg 80%
09:00 +30°C° 0 mm 2 m/s 758 mmHg 73%
10:00 +31°C° 0 mm 2 m/s 757 mmHg 66%
11:00 +34°C° 0 mm 2 m/s 757 mmHg 59%
12:00 +35°C° 0 mm 2 m/s 757 mmHg 52%
13:00 +34°C° 0 mm 1 m/s 756 mmHg 52%
14:00 +34°C° 0 mm 1 m/s 755 mmHg 53%
15:00 +34°C° 0 mm 1 m/s 754 mmHg 53%
16:00 +33°C° 0 mm 1 m/s 754 mmHg 56%
17:00 +33°C° 0 mm 1 m/s 754 mmHg 58%
18:00 +32°C° 0 mm 1 m/s 755 mmHg 61%
19:00 +31°C° 0 mm 1 m/s 755 mmHg 64%
20:00 +30°C° 0 mm 1 m/s 755 mmHg 66%
21:00 +29°C° 0 mm 1 m/s 756 mmHg 68%
22:00 +28°C° 0 mm 1 m/s 756 mmHg 73%
23:00 +28°C° 0 mm 1 m/s 756 mmHg 77%

5 Dezembro, Sábado

Tempo Temperatura Precipitação Vento Pressão Humidade
00:00 +27°C° 0 mm 1 m/s 756 mmHg 82%
01:00 +27°C° 0 mm 1 m/s 755 mmHg 85%
02:00 +26°C° 0 mm 1 m/s 755 mmHg 88%
03:00 +26°C° 0 mm 1 m/s 755 mmHg 90%
04:00 +26°C° 0 mm 1 m/s 755 mmHg 92%
05:00 +25°C° 0 mm 1 m/s 756 mmHg 94%
06:00 +25°C° 0 mm 1 m/s 756 mmHg 96%
07:00 +27°C° 0 mm 1 m/s 757 mmHg 88%
08:00 +28°C° 0 mm 1 m/s 757 mmHg 80%
09:00 +30°C° 0 mm 1 m/s 758 mmHg 72%
10:00 +32°C° 0 mm 1 m/s 758 mmHg 64%
11:00 +34°C° 0 mm 1 m/s 757 mmHg 57%
12:00 +35°C° 0 mm 1 m/s 757 mmHg 50%
13:00 +35°C° 0 mm 1 m/s 756 mmHg 50%
14:00 +35°C° 0 mm 1 m/s 755 mmHg 51%
15:00 +35°C° 0 mm 1 m/s 754 mmHg 52%
16:00 +34°C° 0 mm 1 m/s 754 mmHg 55%
17:00 +31°C° 0 mm 0 m/s 754 mmHg 58%
18:00 +31°C° 0 mm 0 m/s 754 mmHg 61%
19:00 +31°C° 0.2 mm 1 m/s 754 mmHg 67%
20:00 +30°C° 0.2 mm 1 m/s 755 mmHg 72%
21:00 +28°C° 0.2 mm 2 m/s 755 mmHg 78%
22:00 +28°C° 0.1 mm 2 m/s 756 mmHg 81%
23:00 +27°C° 0.1 mm 2 m/s 756 mmHg 84%

6 Dezembro, Domingo

Tempo Temperatura Precipitação Vento Pressão Humidade
00:00 +27°C° 0.1 mm 2 m/s 756 mmHg 88%
01:00 +26°C° 0.2 mm 2 m/s 756 mmHg 90%
02:00 +26°C° 0.2 mm 2 m/s 755 mmHg 93%
03:00 +25°C° 0.2 mm 1 m/s 755 mmHg 96%
04:00 +25°C° 0.5 mm 1 m/s 755 mmHg 96%
05:00 +25°C° 0.5 mm 1 m/s 756 mmHg 96%
06:00 +25°C° 0.5 mm 1 m/s 756 mmHg 97%
07:00 +26°C° 0.2 mm 1 m/s 757 mmHg 91%
08:00 +27°C° 0.2 mm 1 m/s 757 mmHg 86%
09:00 +29°C° 0.2 mm 2 m/s 758 mmHg 81%
10:00 +30°C° 0.4 mm 2 m/s 757 mmHg 74%
11:00 +32°C° 0.4 mm 2 m/s 757 mmHg 68%
12:00 +34°C° 0.4 mm 2 m/s 756 mmHg 61%
13:00 +34°C° 0.2 mm 1 m/s 756 mmHg 56%
14:00 +35°C° 0.2 mm 1 m/s 755 mmHg 52%
15:00 +35°C° 0.2 mm 1 m/s 754 mmHg 47%
16:00 +34°C° 0 mm 1 m/s 754 mmHg 52%
17:00 +33°C° 0 mm 1 m/s 754 mmHg 57%
18:00 +32°C° 0 mm 1 m/s 754 mmHg 62%
19:00 +31°C° 0.1 mm 1 m/s 754 mmHg 67%
20:00 +30°C° 0.1 mm 1 m/s 755 mmHg 71%
21:00 +28°C° 0.1 mm 2 m/s 755 mmHg 75%
22:00 +28°C° 0 mm 2 m/s 756 mmHg 77%
23:00 +28°C° 0 mm 2 m/s 756 mmHg 78%

7 Dezembro, Segunda-feira

Tempo Temperatura Precipitação Vento Pressão Humidade
00:00 +27°C° 0 mm 2 m/s 756 mmHg 80%
01:00 +27°C° 0 mm 2 m/s 756 mmHg 82%
02:00 +26°C° 0 mm 2 m/s 756 mmHg 84%
03:00 +26°C° 0 mm 1 m/s 755 mmHg 86%
04:00 +26°C° 0 mm 1 m/s 756 mmHg 88%
05:00 +25°C° 0 mm 1 m/s 756 mmHg 90%
06:00 +25°C° 0 mm 1 m/s 756 mmHg 93%
07:00 +26°C° 0 mm 1 m/s 756 mmHg 86%
08:00 +28°C° 0 mm 1 m/s 757 mmHg 79%
09:00 +29°C° 0 mm 1 m/s 757 mmHg 73%
10:00 +31°C° 0 mm 1 m/s 757 mmHg 65%
11:00 +33°C° 0 mm 1 m/s 757 mmHg 57%
12:00 +35°C° 0 mm 1 m/s 756 mmHg 49%
13:00 +35°C° 0 mm 1 m/s 755 mmHg 46%
14:00 +36°C° 0 mm 1 m/s 754 mmHg 43%
15:00 +37°C° 0 mm 1 m/s 753 mmHg 40%
16:00 +36°C° 0 mm 1 m/s 753 mmHg 44%
17:00 +34°C° 0 mm 1 m/s 753 mmHg 48%
18:00 +31°C° 0 mm 0 m/s 753 mmHg 53%
19:00 +32°C° 0.1 mm 1 m/s 754 mmHg 57%
20:00 +30°C° 0.1 mm 1 m/s 755 mmHg 62%
21:00 +29°C° 0.1 mm 1 m/s 755 mmHg 66%
22:00 +28°C° 0 mm 1 m/s 756 mmHg 70%
23:00 +28°C° 0 mm 1 m/s 756 mmHg 75%
Mostrar mais

Necessitamos do seu Consentimento

A Meteoprog e os seus Fornecedores de Serviços podem armazenar e aceder a dados pessoais como cookies, identificadores do dispositivo ou outras tecnologias semelhantes existentes no seu dispositivo e processar estes dados para personalizar conteúdos e anúncios, assim como funcionalidades nas redes sociais e análise de tráfego.

  • Armazenar e/ou aceder a informações no seu dispositivo

    Os cookies, identificadores do dispositivo ou outras informações podem ser armazenados ou acedidos no seu dispositivo, para os fins acima indicados.

  • Anúncios e conteúdos personalizados, medição de anúncios e conteúdos, dados sobre o público-alvo e desenvolvimento de produtos

    Os anúncios e os conteúdos podem ser personalizados com base num perfil. Podem ser adicionados dados adicionais para uma maior personalização dos anúncios e dos conteúdos. A eficácia dos anúncios e dos conteúdos pode ser medida. Podem ser obtidas informações sobre o público que visualizou os anúncios e os conteúdos. Estes dados podem ser usados para desenvolver ou melhorar sistemas, softwares ou a experiência do utilizador.

Ao clicar em "Eu concordo”, permitirá o uso de cookies, identificadores do dispositivo e web beacons mencionados ou outras tecnologias semelhantes. As configurações do navegador do seu dispositivo podem ser alteradas.

Para certos fins, podem ser invocados interesses legítimos ao invés de consentimento. Pode ler mais informação sobre este assunto na nossa Política de Privacidade e Cookies.